SBBRSBGO

Guest
Details From SBBR - Brasilia Presidente Juscelino Kubitsch
To SBGO - Santo Genoveva
Flight Number -
Tags decoded
Created
Modified
Stats Distance 88 nm / 163 km
Max Altitude 0 ft / 0 m
Waypoints 2
Social Downloads 10
Likes 0
Share VATSIM

Download

Looking for another format? Having issues loading an existing format? Contact us
Advertisement - Login to hide

Notes

Requested: SBBR W10 SBGO Unmatched points: W10

Route

SBBR SBGO

ID Type Via Altitude Latitude Longitude Leg Dist Tot Dist Heading (true) Name
O SBBR APT - 0 ft / 0 m -15.87110˚ -47.91863˚ - 0 nm - Brasilia Presidente Juscelino Kubitsch
O SBGO APT - 0 ft / 0 m -16.63203˚ -49.22069˚ 87 nm 87 nm 238° / 239° Santo Genoveva

Altitude Profile

Advertisement - Login to hide

SBBR

Details ICAO SBBR (BSB)
Name Brasilia Presidente Juscelino Kubitsch
Region Brazil
Timezone America/Sao_Paulo (UTC-2.0)
Stats Elevation 3,479 ft / 1,060 m (AMSL)
Location -15.871101° -47.918626°
Runways 2
Magnetic Variation 21.550° W

METAR

SBBR 180500Z 12002KT 9999 FEW030 18/17 Q1018

Decode

TAF

TAF SBBR 172000Z 1800/1824 07005KT 8000 NSC TN16/1809Z TX27/1818Z PROB30 1800/1806 4000 TSRA SCT008 FEW025CB PROB40 TEMPO 1806/1812 BKN008 BECMG 1816/1818 34007KT FEW040TCU RMK PDB

Decode

Departure Runways

ID Width Length Bearing (true) Bearing (mag) Surface Threshold Offset Overrun Length
11L 148 ft / 45 m 10,493 ft / 3,198 m 86.35° 107.90° Asphalt 0 ft / 0 m 200 ft / 61 m
11R 148 ft / 45 m 10,839 ft / 3,304 m 86.00° 107.55° Asphalt 2,635 ft / 803 m 200 ft / 61 m
29L 148 ft / 45 m 10,839 ft / 3,304 m 265.99° 287.54° Asphalt 0 ft / 0 m 200 ft / 61 m
29R 148 ft / 45 m 10,493 ft / 3,198 m 266.34° 287.89° Asphalt 0 ft / 0 m 200 ft / 61 m

SBGO

Details ICAO SBGO (GYN)
Name Santo Genoveva
Region Brazil
Timezone America/Sao_Paulo (UTC-2.0)
Stats Elevation 2,450 ft / 747 m (AMSL)
Location -16.632032° -49.220686°
Runways 1
Magnetic Variation 20.990° W

METAR

SBGO 180500Z VRB02KT CAVOK 20/19 Q1017

Decode

TAF

TAF SBGO 172000Z 1800/1824 32005KT 8000 NSC TN19/1809Z TX30/1818Z PROB30 1800/1804 4000 TSRA SCT010 FEW025CB BECMG 1814/1816 FEW035TCU BECMG 1820/1822 8000 NSC RMK PDB

Decode

Destination Runways

ID Width Length Bearing (true) Bearing (mag) Surface Threshold Offset Overrun Length
14 148 ft / 45 m 8,208 ft / 2,502 m 120.42° 141.41° Asphalt 0 ft / 0 m 0 ft / 0 m
32 148 ft / 45 m 8,208 ft / 2,502 m 300.41° 321.40° Asphalt 980 ft / 299 m 0 ft / 0 m

Popular Alternatives